Terminal Aerodrome Forecast
Issued by NWS Huntsville, AL

Home | Current Version | Previous Version | Text Only | Print | Product List | Glossary On
Versions: 1 2 3 4 5 6 7 8 9 10 11 12 13 14 15 16 17 18 19 20 21 22 23 24 25 26 27 28 29 30
000
FTUS44 KHUN 211740
TAFMSL
TAF
KMSL 211740Z 2118/2218 12004KT P6SM SCT010 OVC035
     FM212300 12004KT P6SM FEW015
     FM221000 12007KT 5SM -DZ OVC015
     FM221500 13008KT 6SM -DZ OVC009=

USA.gov is the U.S. government's official web portal to all federal, state and local government web resources and services.